Wind_Speed
31 41 40 38 38 37 35 36 34 32 29 27 23 21 18 16 15 13 14 15 16 16 18 18 17 18 11 7 3 8 7 6 6 7 11 10 11 12 14 8 7 12 14 9 12 10 12
31 31 43 42 39 40 39 37 35 35 31 29 25 23 20 18 16 14 14 16 16 17 19 18 17 13 7 12 3 8 7 7 9 9 7 8 9 8 12 12 12 8 10 10 12 13 14
32 36 44 46 42 41 42 41 36 36 33 31 27 24 21 20 18 16 14 16 16 18 19 20 14 6 7 12 3 8 7 9 6 7 6 4 7 10 6 11 13 11 15 16 18 18 17
31 37 34 50 47 43 43 44 40 37 36 32 29 26 22 20 18 17 15 16 16 18 20 16 9 4 6 3 6 9 11 9 6 6 6 3 6 10 9 12 10 15 16 15 16 10 8
30 33 35 51 50 46 45 45 42 40 36 35 31 27 23 20 18 17 16 16 17 18 14 9 5 5 10 4 10 14 13 13 9 8 6 4 9 13 9 13 14 16 14 18 10 11 8
29 36 37 35 53 50 46 45 45 41 38 36 32 28 23 20 18 15 16 15 17 11 6 7 7 5 10 7 8 6 11 11 9 10 11 12 9 12 12 14 13 7 17 15 9 10 10
29 33 36 41 48 52 48 46 46 43 39 37 35 29 24 20 16 13 13 10 7 7 10 13 2 5 3 5 4 9 10 10 10 13 14 13 10 13 14 15 17 11 13 14 10 4 4
34 32 38 42 41 53 52 49 48 45 41 39 35 30 24 20 14 11 10 7 6 5 8 14 18 16 12 5 7 13 11 10 14 16 16 11 13 15 10 11 8 13 14 15 14 10 6
37 36 39 35 43 51 53 52 48 47 43 40 36 30 24 18 12 11 15 13 3 5 7 12 16 16 16 15 11 15 17 14 15 15 15 15 7 3 9 12 12 15 16 15 13 7 12
37 38 39 37 40 48 58 53 49 47 45 41 37 31 25 18 6 14 16 15 7 2 6 12 8 8 7 8 8 19 19 14 10 14 12 12 12 8 8 10 10 13 15 12 13 12 11
39 41 42 43 42 49 60 56 51 47 46 44 39 34 30 27 2 16 3 12 8 3 6 7 10 7 9 13 6 10 16 10 14 10 6 3 7 10 12 14 7 8 2 8 12 14 14
36 38 43 48 49 52 60 58 54 50 47 46 41 37 31 26 7 7 10 13 8 6 11 8 8 10 9 11 7 9 12 9 4 12 14 17 1 7 11 6 9 2 6 10 12 12 13
31 33 40 46 52 56 63 59 57 52 47 47 43 40 37 24 16 14 17 11 6 12 4 10 9 11 15 10 12 11 16 17 11 7 15 17 17 9 9 9 7 10 9 7 9 8 12
32 32 38 44 53 55 60 62 59 53 47 48 44 40 37 24 9 21 20 11 13 15 24 3 6 11 11 13 12 13 12 16 19 14 10 10 12 18 14 16 7 14 14 8 10 11 12
28 35 45 38 57 52 55 64 58 53 48 49 42 35 30 27 17 21 12 15 15 22 11 16 10 12 14 14 6 14 17 17 16 17 9 8 11 8 5 11 10 9 9 13 15 15 15
28 34 44 33 54 59 56 60 57 55 51 52 37 27 26 28 18 19 13 26 20 17 12 15 21 16 16 16 12 13 13 12 18 14 18 7 13 10 10 6 13 15 9 7 9 10 17
26 32 38 33 52 61 65 62 63 58 57 53 32 9 25 30 20 10 18 26 31 19 12 14 21 20 18 15 18 16 7 8 17 12 15 12 12 12 7 12 16 10 14 15 16 13 16
24 29 36 36 48 59 71 72 65 63 61 54 17 11 37 36 11 16 22 31 26 29 13 12 5 19 18 17 16 19 17 13 12 11 8 17 7 14 22 17 15 15 19 17 13 15 16
22 26 33 34 45 68 73 70 71 73 71 48 13 5 36 31 16 20 27 31 30 30 20 20 13 14 15 17 12 17 21 12 9 12 7 8 8 13 19 16 17 14 20 21 21 20 26
19 25 29 26 22 57 70 71 70 74 73 45 9 9 6 13 21 28 30 30 32 30 23 24 16 19 18 20 19 11 21 10 5 9 5 2 14 18 15 17 16 19 19 20 21 18 19
16 22 22 19 12 29 54 69 67 73 74 38 9 8 9 16 25 29 27 20 32 33 29 22 23 23 21 22 22 23 19 11 3 4 3 6 20 21 25 26 26 28 29 28 29 26 24
14 17 19 13 8 17 26 66 69 76 75 26 8 9 15 11 23 30 28 32 32 35 28 31 29 26 23 24 24 19 16 16 13 13 9 10 19 19 27 25 26 33 33 30 32 32 35
14 13 15 12 3 9 18 28 50 72 65 10 5 8 14 17 22 22 32 37 33 24 30 30 29 22 25 31 19 16 3 11 14 17 20 18 14 8 20 18 22 28 24 35 36 35 29
13 15 13 12 8 6 12 14 21 23 35 9 10 6 6 6 21 25 27 33 33 33 31 26 27 27 28 3 11 11 9 12 14 21 18 16 17 7 5 4 16 14 17 20 23 29 31
10 18 19 15 8 3 8 9 11 13 15 18 7 4 4 10 10 19 21 25 28 24 26 28 26 31 14 15 3 0 0 3 14 22 27 19 11 4 6 9 22 31 19 14 18 26 22
9 14 18 14 12 10 8 8 8 9 8 20 20 10 3 4 5 9 11 17 15 21 20 22 16 16 13 9 4 9 7 6 9 6 24 25 19 12 4 6 15 12 15 22 28 34 23
9 4 15 18 18 18 15 14 13 12 11 9 9 14 6 3 3 4 2 8 6 5 4 4 10 6 13 9 8 7 8 9 9 11 6 16 14 20 16 11 17 13 18 6 16 11 6
6 3 5 15 21 21 19 19 20 20 15 11 8 8 6 3 3 4 5 2 2 1 8 1 3 2 4 6 5 3 6 8 8 17 21 14 10 10 12 11 25 9 16 28 15 19 20
6 2 4 9 19 20 21 21 21 22 21 17 7 13 14 4 2 2 3 3 5 4 2 4 3 4 4 3 2 3 4 3 12 14 19 18 10 10 15 13 20 12 14 17 19 24 25
Wind_Direction
247 249 248 245 239 238 236 236 236 237 240 243 244 248 253 258 266 274 289 300 309 317 319 323 334 338 334 261 267 158 185 221 235 232 241 240 253 253 264 252 240 246 268 233 249 243 241
274 255 247 246 243 238 239 238 232 236 237 240 243 248 250 258 265 273 286 297 307 310 314 318 327 334 283 281 78 165 188 214 236 221 227 248 264 314 290 279 258 309 270 264 246 241 245
281 266 240 245 242 241 239 238 234 234 235 238 240 245 249 256 263 272 282 295 302 305 310 314 324 320 272 268 211 192 207 226 220 246 251 270 285 261 300 260 252 272 259 257 241 235 235
282 261 249 240 241 240 240 238 235 233 234 235 237 240 246 253 260 272 280 290 298 303 304 306 314 277 263 226 239 221 207 212 222 235 272 267 271 273 272 284 261 251 247 256 256 197 194
274 272 262 236 242 238 238 239 235 232 232 234 234 236 242 249 257 269 281 292 299 302 300 294 286 246 266 171 217 224 211 220 212 229 242 269 259 260 229 244 251 228 258 234 205 194 239
275 265 269 252 237 238 237 236 235 230 229 231 230 232 234 241 253 265 281 293 296 289 286 269 258 257 222 238 164 207 210 230 219 238 254 231 245 236 222 244 243 271 212 243 256 172 210
276 267 266 256 231 238 237 235 233 231 226 227 228 227 228 235 246 262 290 286 238 201 217 235 175 241 135 141 187 219 202 214 230 251 255 248 253 235 246 232 263 311 288 286 283 255 246
270 276 256 257 249 232 236 234 232 229 224 224 223 223 220 223 233 251 272 255 336 357 288 235 256 251 260 267 256 225 195 223 223 246 242 234 243 256 270 266 265 259 263 263 266 262 278
268 270 269 260 247 229 226 232 230 226 222 220 218 215 211 211 219 240 237 245 290 309 260 263 229 244 230 211 235 238 193 227 239 243 243 250 310 358 264 229 237 246 256 264 272 272 234
266 270 272 261 252 238 222 228 226 225 219 216 213 208 202 192 201 221 229 235 221 268 266 240 201 238 183 208 242 224 197 225 212 252 239 263 255 211 233 237 237 256 241 253 268 264 267
267 266 267 260 252 236 217 223 221 223 218 212 208 202 195 187 148 184 195 180 181 230 267 120 133 114 146 189 113 190 198 197 239 215 217 131 202 217 239 249 229 270 354 260 254 260 274
263 263 263 280 249 232 212 216 218 219 216 210 203 197 192 197 222 193 168 159 164 221 237 171 143 177 175 199 209 145 180 235 262 242 225 268 211 245 244 220 223 321 238 243 252 254 256
281 268 265 276 230 227 212 213 213 212 212 206 201 193 187 185 205 186 164 168 199 227 133 178 190 179 197 178 191 191 197 200 200 196 221 222 224 219 230 218 208 220 241 255 222 218 252
273 283 287 277 215 216 208 210 207 206 207 203 197 190 189 196 184 171 179 201 218 227 222 90 179 178 196 167 207 200 206 215 222 243 281 218 196 194 189 225 227 207 248 257 290 294 293
293 289 297 267 213 210 202 201 205 203 201 197 187 183 190 194 186 176 192 206 221 229 231 197 179 191 201 189 206 196 223 220 225 212 232 243 253 172 203 215 236 206 234 263 277 272 271
294 293 296 260 214 209 206 205 204 201 196 189 171 178 194 188 186 189 210 225 220 237 246 190 203 199 197 194 190 194 206 219 230 234 226 272 263 210 196 232 240 251 289 249 221 260 266
292 298 299 266 219 207 204 200 198 194 191 177 166 177 181 180 173 195 209 219 217 226 202 212 219 219 232 196 195 193 234 216 206 216 223 230 236 253 168 213 249 204 233 240 268 271 273
296 303 304 300 219 212 198 194 189 190 182 167 167 196 167 163 179 208 218 215 232 216 197 238 285 237 239 231 206 222 218 220 188 202 204 223 253 247 241 234 252 266 276 264 245 262 256
296 302 298 306 227 200 191 187 182 183 175 169 175 152 163 170 193 207 220 221 229 221 215 220 223 232 234 224 225 223 232 231 176 188 210 169 223 255 252 250 244 242 253 255 263 272 266
291 295 298 306 168 182 183 178 176 180 172 169 161 169 168 193 214 208 207 216 220 227 222 217 226 231 225 229 235 237 222 178 198 228 47 143 245 254 255 257 279 271 249 240 254 256 268
281 292 294 309 58 167 179 177 176 178 172 172 177 184 196 187 208 215 211 213 221 216 225 215 227 227 219 231 228 230 235 176 165 193 212 220 248 250 262 271 271 271 269 265 262 250 251
272 301 293 303 37 98 155 177 182 180 175 188 164 175 184 185 199 210 215 215 219 217 210 218 224 220 232 226 223 224 222 235 213 195 220 214 258 266 266 268 272 270 261 259 262 264 266
252 267 277 292 301 106 108 131 178 182 177 191 169 218 180 205 184 195 215 217 221 220 221 226 221 227 224 232 234 248 296 256 243 237 239 235 252 258 266 266 282 269 260 250 253 252 259
251 250 255 268 249 108 113 110 128 141 186 126 172 174 200 198 200 208 212 222 220 221 229 219 225 221 229 12 247 249 265 268 260 261 263 244 237 227 257 146 238 263 248 243 250 247 245
264 234 232 228 250 138 146 127 108 108 85 117 112 136 174 208 200 218 221 217 227 226 237 231 219 226 217 227 85 80 40 216 237 236 236 233 234 231 229 218 268 268 273 255 250 257 248
324 227 221 218 216 207 174 144 125 115 93 82 77 91 89 121 202 219 210 208 213 218 221 227 230 206 222 217 166 190 189 188 204 221 212 228 229 222 186 218 249 276 238 240 246 263 243
342 292 213 207 203 203 183 172 162 146 141 108 87 86 81 100 44 17 222 231 166 197 190 171 176 168 183 197 196 196 208 193 229 210 151 207 212 217 222 241 266 244 266 225 228 280 188
329 311 230 212 202 196 184 180 176 166 160 138 114 137 99 79 62 20 16 337 53 253 209 190 124 203 163 194 183 177 206 200 241 237 226 191 180 212 222 229 255 217 244 228 255 257 272
305 293 189 196 201 198 185 181 180 175 169 150 118 142 125 80 74 40 42 343 34 62 93 12 44 49 47 200 160 173 204 236 231 245 223 242 211 215 199 224 244 259 258 265 275 258 261
Height
768 772 773 777 780 784 784 789 792 796 800 802 802 804 803 803 802 800 801 800 798 795 793 789 786 784 781 772 762 768 771 773 773 772 768 763 763 759 762 751 750 758 747 743 741 741 742
761 766 767 769 774 778 781 785 785 791 794 798 799 802 801 802 801 799 798 798 795 793 791 787 785 783 782 778 768 770 771 772 771 769 764 762 759 755 759 753 754 744 747 744 741 741 739
755 759 759 762 765 770 775 779 779 785 789 793 796 799 798 800 800 797 796 796 793 791 788 786 783 783 777 770 767 769 770 770 768 767 762 763 762 761 753 759 746 751 760 747 739 736 739
750 753 749 755 758 762 767 772 775 779 785 788 791 794 796 798 798 797 795 794 791 788 786 785 782 782 771 766 767 768 766 769 770 769 767 765 765 762 760 751 756 759 752 759 724 727 732
743 741 745 748 751 754 759 766 768 774 777 784 787 790 793 795 796 795 793 793 789 786 785 784 782 779 769 763 765 765 763 762 766 768 768 767 765 762 757 767 762 751 760 744 735 726 729
738 743 739 739 743 747 752 756 763 767 771 778 783 786 788 791 795 793 792 790 786 784 783 785 781 781 762 758 759 762 763 762 763 763 765 764 761 766 761 760 766 747 747 740 740 726 736
730 729 731 732 735 738 743 747 755 762 766 771 780 782 785 789 792 793 794 789 786 780 779 766 759 756 757 759 762 762 762 762 762 764 770 754 767 764 749 743 742 744 748 746 729 722 742
723 720 723 727 726 728 734 740 748 754 759 767 774 779 781 786 788 792 793 785 775 782 771 759 760 757 755 759 760 757 760 763 762 768 753 761 766 746 738 741 751 755 755 750 734 725 738
715 717 715 714 716 720 724 732 739 746 753 761 768 774 779 783 786 790 789 784 781 782 772 752 750 752 753 759 756 752 755 756 758 761 754 761 741 749 751 749 760 754 755 747 744 731 730
704 705 703 701 705 713 714 722 729 737 747 754 763 769 778 782 787 783 783 784 782 783 774 749 753 747 752 754 755 744 745 751 751 758 748 751 735 752 755 754 748 757 733 743 746 749 752
693 692 692 694 699 703 704 712 720 728 739 749 756 764 772 775 772 775 776 781 781 784 793 729 746 745 748 751 748 749 746 748 755 752 756 745 750 753 758 747 740 749 739 744 743 746 742
685 685 682 683 686 691 693 701 710 719 731 742 749 759 768 772 773 771 778 779 782 786 779 743 742 749 755 749 747 749 750 749 741 746 746 742 735 740 738 736 740 738 747 747 745 746 760
676 674 672 670 671 679 682 687 702 709 723 733 744 754 760 766 765 770 775 778 786 775 734 736 741 741 747 751 750 751 754 754 747 763 753 736 739 734 734 744 740 744 748 760 762 756 754
666 662 660 655 658 663 668 681 694 700 714 728 740 751 754 762 763 767 772 774 773 735 731 721 728 738 745 737 748 749 749 749 738 735 735 737 747 730 728 734 734 743 742 753 767 754 733
651 646 643 636 645 652 661 671 684 690 705 724 739 746 753 756 760 763 766 767 741 734 716 721 730 741 742 733 738 747 749 741 729 733 744 732 735 716 722 722 726 730 747 727 745 740 750
644 642 635 626 631 640 649 662 672 684 699 717 727 741 745 751 758 761 763 743 726 714 711 714 731 722 731 733 744 744 742 724 728 720 723 725 746 720 718 726 723 728 719 749 740 764 758
638 634 625 617 621 628 637 649 663 676 694 710 725 732 734 744 756 758 741 717 722 710 716 722 720 717 717 718 728 737 727 720 715 720 721 724 735 731 727 735 729 727 736 735 733 732 744
628 624 612 607 607 615 625 637 650 666 685 703 713 721 722 735 747 734 719 710 716 714 718 721 723 710 713 715 714 725 727 715 711 715 734 724 730 740 726 710 705 714 719 717 736 738 719
622 618 611 599 581 594 610 620 633 648 665 684 698 705 720 723 725 709 711 713 711 712 709 720 722 715 709 717 730 719 713 707 714 722 725 725 736 746 735 722 710 723 718 715 714 716 720
617 615 608 597 578 584 600 608 622 634 654 676 692 704 710 715 698 700 704 704 709 703 704 711 714 713 718 718 712 715 714 714 722 725 736 728 728 728 735 727 711 713 705 707 712 720 714
613 612 607 597 583 583 592 603 614 628 647 659 669 676 679 683 689 684 696 694 700 700 703 707 711 711 716 723 718 714 713 716 732 735 733 731 732 725 717 713 710 707 704 703 703 697 708
604 603 604 602 591 589 595 596 611 625 642 648 654 655 664 659 682 688 684 682 682 690 699 703 706 706 711 712 706 716 717 720 723 726 728 723 730 725 718 716 714 706 696 696 692 690 679
604 604 604 602 602 598 597 602 612 622 636 638 646 649 653 659 669 687 661 656 674 688 685 685 698 706 701 693 703 707 712 709 710 720 722 727 730 742 734 724 723 707 698 693 683 678 681
601 603 601 602 605 601 600 609 615 622 626 630 643 649 655 655 650 648 664 668 669 671 677 681 691 696 683 701 705 709 715 718 722 723 719 729 732 745 747 751 746 674 664 663 669 661 658
597 599 605 607 602 599 607 608 612 619 625 632 639 647 649 650 652 659 661 664 672 671 675 674 677 677 699 707 732 735 742 738 726 724 723 723 737 746 747 742 707 677 671 666 668 653 647
592 592 597 599 601 606 608 610 614 620 623 630 640 648 655 654 660 659 663 664 671 673 677 672 678 684 697 706 725 725 722 719 718 713 710 719 725 738 746 733 708 658 646 648 658 635 643
594 592 595 599 603 611 609 614 620 625 633 639 645 648 658 667 673 674 666 659 667 671 673 677 678 688 690 701 703 708 706 699 697 691 704 710 716 718 723 723 683 650 647 648 674 636 618
598 595 593 596 603 608 610 616 624 629 637 642 651 659 660 671 676 681 679 676 672 672 668 681 678 676 685 688 695 700 697 691 686 668 670 695 706 704 709 713 685 643 641 658 630 629 625
598 597 599 600 601 605 610 617 625 630 635 645 654 659 665 673 681 682 683 684 684 687 686 689 687 688 697 688 684 687 693 683 668 666 658 675 675 674 675 661 639 632 635 630 626 627 629